TimePST,TemperatureF,Dew PointF,Humidity,Sea Level PressureIn,VisibilityMPH,Wind Direction,Wind SpeedMPH,Gust SpeedMPH,PrecipitationIn,Events,Conditions,WindDirDegrees,DateUTC
12:15 AM,23.0,21.2,93,30.16,10.0,Calm,Calm,-,N/A,,Unknown,0,2012-12-19 08:15:00
12:35 AM,23.0,19.4,86,30.16,9.0,NE,3.5,-,N/A,,Unknown,40,2012-12-19 08:35:00
12:55 AM,23.0,19.4,86,30.17,10.0,Calm,Calm,-,N/A,,Unknown,0,2012-12-19 08:55:00
1:15 AM,23.0,19.4,86,30.17,9.0,NE,3.5,-,N/A,,Unknown,50,2012-12-19 09:15:00
1:35 AM,21.2,19.4,93,30.18,6.0,Calm,Calm,-,N/A,,Unknown,0,2012-12-19 09:35:00
1:55 AM,21.2,19.4,93,30.18,9.0,NNE,3.5,-,N/A,,Unknown,20,2012-12-19 09:55:00
2:15 AM,21.2,19.4,93,30.18,10.0,Calm,Calm,-,N/A,,Unknown,0,2012-12-19 10:15:00
2:35 AM,21.2,19.4,93,30.19,10.0,Calm,Calm,-,N/A,,Unknown,0,2012-12-19 10:35:00
2:55 AM,19.4,17.6,93,30.19,7.0,Calm,Calm,-,N/A,,Unknown,0,2012-12-19 10:55:00
3:15 AM,19.4,17.6,93,30.19,10.0,Calm,Calm,-,N/A,,Unknown,0,2012-12-19 11:15:00
3:35 AM,19.4,17.6,93,30.19,10.0,Calm,Calm,-,N/A,,Unknown,0,2012-12-19 11:35:00
3:55 AM,21.2,19.4,93,30.19,10.0,Calm,Calm,-,N/A,,Unknown,0,2012-12-19 11:55:00
4:15 AM,21.2,19.4,93,30.18,10.0,Calm,Calm,-,N/A,,Unknown,0,2012-12-19 12:15:00
4:35 AM,23.0,19.4,86,30.19,10.0,Calm,Calm,-,N/A,,Unknown,0,2012-12-19 12:35:00
4:55 AM,23.0,19.4,86,30.19,10.0,Calm,Calm,-,N/A,,Unknown,0,2012-12-19 12:55:00
5:15 AM,23.0,21.2,93,30.19,10.0,NNW,3.5,-,N/A,,Unknown,340,2012-12-19 13:15:00
5:35 AM,23.0,21.2,93,30.19,10.0,Calm,Calm,-,N/A,,Unknown,0,2012-12-19 13:35:00
5:55 AM,23.0,21.2,93,30.19,10.0,Calm,Calm,-,N/A,,Unknown,0,2012-12-19 13:55:00
6:15 AM,24.8,21.2,86,30.19,10.0,Calm,Calm,-,N/A,,Unknown,0,2012-12-19 14:15:00
6:35 AM,24.8,23.0,93,30.20,10.0,Calm,Calm,-,N/A,,Unknown,0,2012-12-19 14:35:00
6:55 AM,24.8,23.0,93,30.20,10.0,Calm,Calm,-,N/A,,Unknown,0,2012-12-19 14:55:00
7:15 AM,24.8,23.0,93,30.20,10.0,Calm,Calm,-,N/A,,Unknown,0,2012-12-19 15:15:00
7:35 AM,24.8,23.0,93,30.21,10.0,Calm,Calm,-,N/A,,Unknown,0,2012-12-19 15:35:00
7:55 AM,24.8,23.0,93,30.20,10.0,Calm,Calm,-,N/A,,Unknown,0,2012-12-19 15:55:00
8:15 AM,24.8,23.0,93,30.21,10.0,Calm,Calm,-,N/A,,Unknown,0,2012-12-19 16:15:00
8:35 AM,24.8,23.0,93,30.22,10.0,Calm,Calm,-,N/A,,Unknown,0,2012-12-19 16:35:00
8:55 AM,26.6,23.0,86,30.23,10.0,Calm,Calm,-,N/A,,Unknown,0,2012-12-19 16:55:00
9:15 AM,26.6,23.0,86,30.23,10.0,Calm,Calm,-,N/A,,Unknown,0,2012-12-19 17:15:00
9:35 AM,26.6,24.8,93,30.24,10.0,Calm,Calm,-,N/A,,Unknown,0,2012-12-19 17:35:00
9:55 AM,28.4,24.8,86,30.25,10.0,SSW,3.5,-,N/A,,Unknown,210,2012-12-19 17:55:00
10:15 AM,28.4,24.8,86,30.24,10.0,Calm,Calm,-,N/A,,Unknown,0,2012-12-19 18:15:00
10:35 AM,28.4,24.8,86,30.23,10.0,Calm,Calm,-,N/A,,Unknown,0,2012-12-19 18:35:00
10:55 AM,30.2,24.8,80,30.23,10.0,Calm,Calm,-,N/A,,Unknown,0,2012-12-19 18:55:00
11:15 AM,30.2,24.8,80,30.21,10.0,Calm,Calm,-,N/A,,Unknown,0,2012-12-19 19:15:00
11:35 AM,32.0,24.8,75,30.22,10.0,Calm,Calm,-,N/A,,Unknown,0,2012-12-19 19:35:00
11:55 AM,32.0,24.8,75,30.20,10.0,Calm,Calm,-,N/A,,Unknown,0,2012-12-19 19:55:00
12:15 PM,32.0,24.8,75,30.20,10.0,Calm,Calm,-,N/A,,Unknown,0,2012-12-19 20:15:00
12:35 PM,32.0,24.8,75,30.20,10.0,Calm,Calm,-,N/A,,Unknown,0,2012-12-19 20:35:00
12:55 PM,32.0,24.8,75,30.19,10.0,Calm,Calm,-,N/A,,Unknown,0,2012-12-19 20:55:00
1:15 PM,32.0,24.8,75,30.18,10.0,Calm,Calm,-,N/A,,Unknown,0,2012-12-19 21:15:00
1:35 PM,32.0,24.8,75,30.18,10.0,Calm,Calm,-,N/A,,Unknown,0,2012-12-19 21:35:00
1:55 PM,32.0,24.8,75,30.18,10.0,Calm,Calm,-,N/A,,Unknown,0,2012-12-19 21:55:00
2:15 PM,32.0,24.8,75,30.17,10.0,Calm,Calm,-,N/A,,Unknown,0,2012-12-19 22:15:00
2:35 PM,32.0,24.8,75,30.17,10.0,Calm,Calm,-,N/A,,Unknown,0,2012-12-19 22:35:00
2:55 PM,33.8,24.8,70,30.16,10.0,Calm,Calm,-,N/A,,Unknown,0,2012-12-19 22:55:00
3:15 PM,33.8,24.8,70,30.16,10.0,Calm,Calm,-,N/A,,Unknown,0,2012-12-19 23:15:00
3:35 PM,35.6,24.8,65,30.15,10.0,Calm,Calm,-,N/A,,Unknown,0,2012-12-19 23:35:00
3:55 PM,35.6,23.0,60,30.15,10.0,Calm,Calm,-,N/A,,Unknown,0,2012-12-19 23:55:00
4:15 PM,35.6,23.0,60,30.15,10.0,Calm,Calm,-,N/A,,Unknown,0,2012-12-20 00:15:00
4:35 PM,35.6,23.0,60,30.15,10.0,Calm,Calm,-,N/A,,Unknown,0,2012-12-20 00:35:00
4:55 PM,35.6,23.0,60,30.15,10.0,Calm,Calm,-,N/A,,Unknown,0,2012-12-20 00:55:00
5:15 PM,33.8,24.8,70,30.14,10.0,Calm,Calm,-,N/A,,Unknown,0,2012-12-20 01:15:00
5:35 PM,35.6,21.2,56,30.14,10.0,Calm,Calm,-,N/A,,Unknown,0,2012-12-20 01:35:00
5:55 PM,33.8,24.8,70,30.13,10.0,Calm,Calm,-,N/A,,Unknown,0,2012-12-20 01:55:00
6:15 PM,33.8,21.2,60,30.13,10.0,NE,3.5,-,N/A,,Unknown,50,2012-12-20 02:15:00
6:35 PM,33.8,23.0,65,30.13,10.0,Calm,Calm,-,N/A,,Unknown,0,2012-12-20 02:35:00
6:55 PM,33.8,21.2,60,30.14,10.0,Calm,Calm,-,N/A,,Unknown,0,2012-12-20 02:55:00
7:15 PM,35.6,19.4,52,30.15,10.0,Calm,Calm,-,N/A,,Unknown,0,2012-12-20 03:15:00
7:35 PM,33.8,23.0,65,30.14,10.0,Calm,Calm,-,N/A,,Unknown,0,2012-12-20 03:35:00
7:55 PM,32.0,23.0,69,30.14,10.0,Calm,Calm,-,N/A,,Unknown,0,2012-12-20 03:55:00
8:15 PM,33.8,24.8,70,30.14,10.0,Calm,Calm,-,N/A,,Unknown,0,2012-12-20 04:15:00
8:35 PM,33.8,21.2,60,30.14,10.0,NE,3.5,-,N/A,,Unknown,50,2012-12-20 04:35:00
8:55 PM,33.8,23.0,65,30.14,10.0,Calm,Calm,-,N/A,,Unknown,0,2012-12-20 04:55:00
9:15 PM,33.8,23.0,65,30.13,10.0,Calm,Calm,-,N/A,,Unknown,0,2012-12-20 05:15:00
9:35 PM,33.8,24.8,70,30.13,10.0,NE,3.5,-,N/A,,Unknown,50,2012-12-20 05:35:00
9:55 PM,35.6,21.2,56,30.14,10.0,NE,3.5,-,N/A,,Unknown,50,2012-12-20 05:55:00
10:15 PM,35.6,23.0,60,30.13,10.0,NE,4.6,-,N/A,,Unknown,50,2012-12-20 06:15:00
10:35 PM,35.6,23.0,60,30.13,10.0,East,3.5,-,N/A,,Unknown,80,2012-12-20 06:35:00
10:55 PM,33.8,23.0,65,30.13,10.0,NE,3.5,-,N/A,,Unknown,50,2012-12-20 06:55:00
11:15 PM,33.8,24.8,70,30.13,10.0,Calm,Calm,-,N/A,,Unknown,0,2012-12-20 07:15:00
11:35 PM,33.8,24.8,70,30.13,10.0,NNE,6.9,-,N/A,,Unknown,30,2012-12-20 07:35:00
11:55 PM,33.8,24.8,70,30.13,10.0,Calm,Calm,-,N/A,,Unknown,0,2012-12-20 07:55:00